Showing default

ION SCV-002, 47504

Orbit data source: Space-Track

ION SCV-002, 47504 is a payload satellite owned by D-ORBIT (IT) in SSO that was launched on Sun, 24 Jan 2021 UTC via an FALCON 9 launch vehicle from the Air Force Eastern Test Range (AFETR). Payload-class satellites include a variety of spacecraft equipped with specific instruments for various scientific and technological missions. These include communications satellites like Starlink; space stations such as the ISS; scientific satellites like the Hubble; Earth observation satellites from companies like Planet Labs, Umbra, and HawkEye 360; GPS; miniature CubeSats for education and research; and military/defense satellites.

Loading next visibility...
Identifier
47504, 2021-006CV
Orbit
SSO
Country
Flag of ITIT
Related business
Manufacturer
D-ORBIT
Mission
Operational Commercial Technology
Bus & Motor
ION-SC, PM200
Mass
220 kg wet, 150 kg dry
Launch date (UTC)
2021-01-24 (5 years ago)
Launch vehicle
FALCON 9
Launch site
Air Force Eastern Test Range (AFETR)
Object type
Payload
Rocket body
Debris
Shape & HBR
Box, 0.2 m
Radar Cross Section
0.240 m², Medium (>0.1 m² and < 1m²)

Expand to show TLE details & history
Last TLE update: 6 hours ago

TLE from 6 hours ago
0 ION SCV-002
1 47504U 21006CV  26036.98432854  .00018904  00000-0  46677-3 0  9994
2 47504  97.1138  42.0709 0010141 226.1856 133.8553 15.40495911279803
Epoch: 2026-02-05T23:37Z
TLE epoch observation values (Epoch: 2026-02-05T23:37:25.985Z)
Latitude
-0.00008°
Longitude
-88.41608°
Altitude
452.57 km
Speed
7.638 km/s
True Right ascension
02h 48m 17s
True Declination
0° 00' 00"
Sunlit
Object was in daylight at epoch
Visualization orbit readout
Latitude
Unknown
Longitude
Unknown
Altitude
Unknown
Speed
Unknown
Apparent Right ascension
Unknown
Apparent Declination
Unknown
Sunlit
N/A
Visualization observer readout
Local Sidereal Time
07:36:26
Azimuth
Unknown
Elevation
Unknown
Doppler factor
Unknown
Orbital elements
Apogee altitude
448.487 km
Perigee altitude
434.655 km
Semi-major axis
6,819.708 km
Eccentricity
0.00101
Inclination
97.1138°
RAAN
42.0709°
Arg. of periapsis
226.1856°
True anomaly
133.93902°
Mean anomaly
133.8553°
Eccentric anomaly
133.89717°
Mean motion
3.85385 °/min
Orbital period
93.41 mins
BSTAR
0.00046677
Loading maneuver chart data...
Computing Atmospheric mass density...

Documentation

Showing up to 5 results
|